FAB2326 SBBW-SBSR

Flight info

Callsign FAB2326
Flight time N/A
Altitude 9000
Route DCT 18 5 37S 51 4 9W DCT SR369
Aircraft C95B/L-SDE3/C

Departure

Time 2026-04-11 09:41
Airport Barra do Garças Airport (SBBW)

Arrival

Time N/A
Airport Prof. Eribelto Manoel Reino State Airport (SBSR)
Time Latitude Longitude Altitude Speed Heading
2026-04-11 09:35 -15.85872 -52.38951 1152 ft 0 kts 221°
2026-04-11 09:38 -15.85880 -52.38959 1152 ft 11 kts 221°
2026-04-11 09:38 -15.85982 -52.39057 1152 ft 26 kts 226°
2026-04-11 09:38 -15.86103 -52.39205 1152 ft 21 kts 231°
2026-04-11 09:39 -15.86194 -52.39306 1152 ft 21 kts 223°
2026-04-11 09:39 -15.86302 -52.39436 1152 ft 25 kts 234°
2026-04-11 09:39 -15.86401 -52.39514 1152 ft 13 kts 182°
2026-04-11 09:39 -15.86430 -52.39485 1152 ft 1 kts 54°
2026-04-11 09:40 -15.86382 -52.39414 1152 ft 39 kts 54°
2026-04-11 09:40 -15.86084 -52.38977 1155 ft 101 kts 54°
2026-04-11 09:40 -15.85657 -52.38348 1410 ft 114 kts 56°
2026-04-11 09:40 -15.85397 -52.37501 1668 ft 134 kts 95°
2026-04-11 09:41 -15.85556 -52.36517 1958 ft 146 kts 92°
2026-04-11 09:41 -15.85240 -52.35485 2186 ft 157 kts 52°
2026-04-11 09:41 -15.84601 -52.34961 2353 ft 163 kts 24°
2026-04-11 09:41 -15.84159 -52.34823 2443 ft 167 kts
2026-04-11 09:42 -15.82992 -52.34930 2697 ft 173 kts 346°
2026-04-11 09:42 -15.81828 -52.35302 2914 ft 179 kts 341°
2026-04-11 09:42 -15.80715 -52.35894 3117 ft 184 kts 317°
2026-04-11 09:43 -15.80118 -52.38361 3530 ft 187 kts 250°
2026-04-11 09:43 -15.80865 -52.39436 3730 ft 188 kts 217°
2026-04-11 09:43 -15.82071 -52.39920 3932 ft 187 kts 184°
2026-04-11 09:43 -15.83319 -52.39639 4132 ft 187 kts 150°
2026-04-11 09:44 -15.84314 -52.38807 4370 ft 185 kts 135°
2026-04-11 09:44 -15.85208 -52.37821 4573 ft 187 kts 131°
2026-04-11 09:44 -15.86076 -52.36804 4773 ft 189 kts 130°
2026-04-11 09:44 -15.86943 -52.35777 4972 ft 192 kts 130°
2026-04-11 09:45 -15.87831 -52.34725 5173 ft 194 kts 130°
2026-04-11 09:45 -15.88744 -52.33674 5374 ft 196 kts 133°
2026-04-11 09:45 -15.89722 -52.32693 5573 ft 198 kts 139°
2026-04-11 09:45 -15.90793 -52.31778 5775 ft 200 kts 144°
2026-04-11 09:46 -15.91934 -52.30924 5979 ft 201 kts 148°
2026-04-11 09:46 -15.93102 -52.30131 6179 ft 202 kts 151°
2026-04-11 09:46 -15.94305 -52.29367 6382 ft 203 kts 153°
2026-04-11 09:46 -15.95516 -52.28631 6583 ft 203 kts 155°
2026-04-11 09:47 -15.96748 -52.27905 6784 ft 203 kts 156°
2026-04-11 09:47 -15.97986 -52.27190 6985 ft 202 kts 156°
2026-04-11 09:47 -15.99216 -52.26488 7184 ft 203 kts 156°
2026-04-11 09:47 -16.00449 -52.25789 7383 ft 203 kts 156°
2026-04-11 09:48 -16.01699 -52.25083 7584 ft 203 kts 156°
2026-04-11 09:48 -16.02930 -52.24388 7782 ft 203 kts 157°
2026-04-11 09:48 -16.04177 -52.23686 7983 ft 203 kts 157°
2026-04-11 09:48 -16.05413 -52.22991 8181 ft 203 kts 157°
2026-04-11 09:49 -16.06654 -52.22292 8380 ft 204 kts 157°
2026-04-11 09:49 -16.07911 -52.21586 8582 ft 204 kts 157°
2026-04-11 09:49 -16.09165 -52.20880 8779 ft 204 kts 157°
2026-04-11 09:49 -16.10418 -52.20176 8919 ft 208 kts 157°
2026-04-11 09:50 -16.11697 -52.19459 8987 ft 213 kts 157°
2026-04-11 09:50 -16.13036 -52.18709 9003 ft 220 kts 156°
2026-04-11 09:50 -16.14387 -52.17952 9005 ft 225 kts 156°
2026-04-11 09:50 -16.15770 -52.17175 9004 ft 228 kts 156°
2026-04-11 09:51 -16.17174 -52.16385 9003 ft 231 kts 156°
2026-04-11 09:51 -16.18594 -52.15584 9002 ft 232 kts 156°
2026-04-11 09:51 -16.20028 -52.14776 9001 ft 233 kts 156°
2026-04-11 09:51 -16.21450 -52.13974 9001 ft 234 kts 156°
2026-04-11 09:52 -16.22882 -52.13166 9001 ft 235 kts 156°
2026-04-11 09:52 -16.24337 -52.12346 9000 ft 235 kts 156°
2026-04-11 09:52 -16.25771 -52.11537 9000 ft 235 kts 156°
2026-04-11 09:52 -16.27200 -52.10731 9000 ft 235 kts 156°
2026-04-11 09:53 -16.28643 -52.09918 9000 ft 236 kts 156°
2026-04-11 09:53 -16.30094 -52.09100 9000 ft 236 kts 156°
2026-04-11 09:53 -16.31525 -52.08292 9000 ft 236 kts 156°
2026-04-11 09:53 -16.32972 -52.07476 9000 ft 236 kts 156°
2026-04-11 09:54 -16.34410 -52.06665 9000 ft 236 kts 156°
2026-04-11 09:54 -16.35872 -52.05840 9000 ft 236 kts 156°
2026-04-11 09:54 -16.37301 -52.05034 9000 ft 236 kts 156°
2026-04-11 09:54 -16.38734 -52.04226 9000 ft 236 kts 156°
2026-04-11 09:55 -16.40183 -52.03408 9000 ft 236 kts 156°
2026-04-11 09:55 -16.41618 -52.02598 9000 ft 236 kts 156°
2026-04-11 09:55 -16.43080 -52.01773 9000 ft 236 kts 156°
2026-04-11 09:55 -16.44514 -52.00963 9000 ft 236 kts 156°
2026-04-11 09:56 -16.45957 -52.00148 9000 ft 236 kts 156°
2026-04-11 09:56 -16.47395 -51.99336 9000 ft 236 kts 156°
2026-04-11 09:56 -16.48838 -51.98521 9000 ft 236 kts 156°
2026-04-11 09:56 -16.50290 -51.97700 9000 ft 236 kts 156°
2026-04-11 09:57 -16.51722 -51.96891 9000 ft 236 kts 156°
2026-04-11 09:57 -16.53154 -51.96082 9000 ft 236 kts 156°
2026-04-11 09:57 -16.54608 -51.95260 9000 ft 236 kts 156°
2026-04-11 09:57 -16.56042 -51.94449 9000 ft 236 kts 156°
2026-04-11 09:58 -16.57499 -51.93625 9000 ft 236 kts 156°
2026-04-11 09:58 -16.58934 -51.92814 9000 ft 236 kts 156°
2026-04-11 09:58 -16.60375 -51.91998 9000 ft 236 kts 156°
2026-04-11 09:58 -16.61820 -51.91181 9000 ft 236 kts 156°
2026-04-11 09:59 -16.63261 -51.90365 9000 ft 236 kts 156°
2026-04-11 09:59 -16.64708 -51.89547 9000 ft 236 kts 156°
2026-04-11 09:59 -16.66146 -51.88733 9000 ft 236 kts 156°
2026-04-11 09:59 -16.67586 -51.87917 9000 ft 236 kts 156°
2026-04-11 10:00 -16.69030 -51.87100 9000 ft 236 kts 156°
2026-04-11 10:00 -16.70475 -51.86282 9000 ft 236 kts 156°
2026-04-11 10:00 -16.71927 -51.85459 9000 ft 236 kts 156°
2026-04-11 10:00 -16.73363 -51.84645 9000 ft 236 kts 156°
2026-04-11 10:01 -16.74800 -51.83831 9000 ft 236 kts 156°
2026-04-11 10:01 -16.76254 -51.83007 9000 ft 236 kts 156°
2026-04-11 10:01 -16.77692 -51.82192 9000 ft 236 kts 156°
2026-04-11 10:01 -16.79141 -51.81371 9000 ft 235 kts 156°
2026-04-11 10:02 -16.80567 -51.80561 8999 ft 234 kts 156°
2026-04-11 10:02 -16.81989 -51.79754 8999 ft 232 kts 156°
2026-04-11 10:02 -16.83413 -51.78946 8999 ft 231 kts 156°
2026-04-11 10:02 -16.84821 -51.78147 8999 ft 231 kts 156°
2026-04-11 10:03 -16.86225 -51.77350 8999 ft 230 kts 156°
2026-04-11 10:03 -16.87645 -51.76544 9000 ft 230 kts 156°
2026-04-11 10:03 -16.89042 -51.75752 9000 ft 230 kts 156°
2026-04-11 10:03 -16.90453 -51.74951 9000 ft 230 kts 156°
2026-04-11 10:04 -16.91852 -51.74157 9000 ft 230 kts 156°
2026-04-11 10:04 -16.93242 -51.73367 9000 ft 230 kts 156°
2026-04-11 10:04 -16.94654 -51.72566 9000 ft 229 kts 156°
2026-04-11 10:04 -16.96052 -51.71772 9000 ft 229 kts 156°
2026-04-11 10:05 -16.96988 -51.71240 9000 ft 229 kts 156°
2026-04-11 10:05 -16.98397 -51.70439 9000 ft 229 kts 156°
2026-04-11 10:05 -16.99788 -51.69649 9000 ft 229 kts 156°
2026-04-11 10:05 -17.01656 -51.68587 9000 ft 229 kts 156°
2026-04-11 10:06 -17.03069 -51.67784 9000 ft 229 kts 156°
2026-04-11 10:06 -17.04009 -51.67249 9000 ft 229 kts 156°
2026-04-11 10:06 -17.05398 -51.66459 9000 ft 229 kts 156°
2026-04-11 10:06 -17.06806 -51.65658 9000 ft 229 kts 156°
2026-04-11 10:07 -17.08214 -51.64857 9000 ft 229 kts 156°
2026-04-11 10:07 -17.09606 -51.64065 9000 ft 229 kts 156°
2026-04-11 10:07 -17.11011 -51.63265 9000 ft 229 kts 156°
2026-04-11 10:07 -17.12417 -51.62465 9000 ft 229 kts 156°
2026-04-11 10:08 -17.13810 -51.61672 9000 ft 229 kts 156°
2026-04-11 10:08 -17.15208 -51.60876 9000 ft 229 kts 156°
2026-04-11 10:08 -17.16606 -51.60080 9000 ft 229 kts 156°
2026-04-11 10:08 -17.18013 -51.59278 9000 ft 229 kts 156°
2026-04-11 10:09 -17.19425 -51.58474 9000 ft 229 kts 156°
2026-04-11 10:09 -17.20815 -51.57682 9000 ft 229 kts 156°
2026-04-11 10:09 -17.22225 -51.56878 9000 ft 230 kts 156°
2026-04-11 10:09 -17.23622 -51.56082 9000 ft 230 kts 156°
2026-04-11 10:10 -17.25030 -51.55279 9000 ft 230 kts 156°
2026-04-11 10:10 -17.26414 -51.54490 9000 ft 230 kts 156°
2026-04-11 10:10 -17.27835 -51.53679 9000 ft 230 kts 156°